Voltar ao catálogo

STARLINK-4621

AtivoComunicaçõesSSO
NORAD 53676·PAYLOAD·🇺🇸 United States

Lançado Aug 31, 2022 de Vandenberg Space Force Base

Loading…

Próximas Passagens (próximas 24 horas)

TLE

AtualizadoSource: CelesTrak SupGP

Época: Sep 15, 2026, 02:40 UTC

1 53676C 22105AE  26258.11159722  .00042970  00000+0  29832-2 0  2583
2 53676  97.2830 132.2270 0002469  89.4285 337.2055 15.05637624    17

Acompanhe STARLINK-4621 em tempo real com AllMySat

Download on the App Store